EN

Hourly Weather Lagiewniki

Today, 23 July, Friday

Time Temperature Precipitation Wind Pressure Humidity
00:00 +18°C° 0 mm 1 mps 741 mmHg 77%
01:00 +16°C° 0 mm 0 mps 741 mmHg 77%
02:00 +16°C° 0 mm 0 mps 741 mmHg 76%
03:00 +16°C° 0 mm 0 mps 741 mmHg 76%
04:00 +16°C° 0 mm 0 mps 741 mmHg 75%
05:00 +16°C° 0 mm 0 mps 741 mmHg 75%
06:00 +17°C° 0 mm 0 mps 741 mmHg 75%
07:00 +17°C° 0 mm 0 mps 741 mmHg 74%
08:00 +18°C° 0 mm 0 mps 741 mmHg 71%
09:00 +21°C° 0 mm 1 mps 741 mmHg 69%
10:00 +21°C° 0 mm 1 mps 741 mmHg 66%
11:00 +22°C° 0.1 mm 1 mps 741 mmHg 62%
12:00 +23°C° 0.1 mm 1 mps 741 mmHg 58%
13:00 +24°C° 0.1 mm 1 mps 740 mmHg 55%
14:00 +24°C° 0 mm 1 mps 740 mmHg 54%
15:00 +25°C° 0 mm 1 mps 740 mmHg 53%
16:00 +25°C° 0 mm 1 mps 740 mmHg 52%
17:00 +24°C° 0 mm 1 mps 740 mmHg 58%
18:00 +22°C° 0 mm 1 mps 740 mmHg 65%
19:00 +21°C° 0 mm 1 mps 740 mmHg 71%
20:00 +20°C° 0 mm 1 mps 740 mmHg 72%
21:00 +20°C° 0 mm 1 mps 740 mmHg 73%
22:00 +20°C° 0 mm 1 mps 740 mmHg 73%
23:00 +19°C° 0 mm 1 mps 740 mmHg 74%

Tomorrow, 24 July, Saturday

Time Temperature Precipitation Wind Pressure Humidity
00:00 +19°C° 0 mm 1 mps 740 mmHg 74%
01:00 +19°C° 0 mm 1 mps 740 mmHg 74%
02:00 +19°C° 0 mm 1 mps 740 mmHg 75%
03:00 +19°C° 0 mm 1 mps 740 mmHg 76%
04:00 +16°C° 0 mm 0 mps 740 mmHg 76%
05:00 +19°C° 0 mm 1 mps 740 mmHg 75%
06:00 +20°C° 0 mm 1 mps 740 mmHg 73%
07:00 +21°C° 0 mm 1 mps 740 mmHg 72%
08:00 +22°C° 0 mm 1 mps 740 mmHg 66%
09:00 +23°C° 0 mm 2 mps 740 mmHg 61%
10:00 +25°C° 0 mm 2 mps 740 mmHg 56%
11:00 +25°C° 0 mm 2 mps 740 mmHg 54%
12:00 +26°C° 0 mm 2 mps 740 mmHg 52%
13:00 +26°C° 0 mm 2 mps 739 mmHg 50%
14:00 +26°C° 0 mm 2 mps 739 mmHg 52%
15:00 +26°C° 0 mm 2 mps 739 mmHg 54%
16:00 +26°C° 0 mm 2 mps 739 mmHg 55%
17:00 +24°C° 0 mm 2 mps 739 mmHg 61%
18:00 +23°C° 0 mm 2 mps 739 mmHg 66%
19:00 +21°C° 0 mm 2 mps 739 mmHg 72%
20:00 +20°C° 0 mm 2 mps 739 mmHg 73%
21:00 +19°C° 0 mm 2 mps 739 mmHg 75%
22:00 +18°C° 0 mm 2 mps 739 mmHg 76%
23:00 +18°C° 0 mm 2 mps 739 mmHg 78%

Day after tomorrow, 25 July, Sunday

Time Temperature Precipitation Wind Pressure Humidity
00:00 +18°C° 0 mm 2 mps 739 mmHg 80%
01:00 +17°C° 0 mm 2 mps 738 mmHg 82%
02:00 +17°C° 0 mm 2 mps 738 mmHg 83%
03:00 +17°C° 0 mm 2 mps 738 mmHg 83%
04:00 +17°C° 0 mm 2 mps 738 mmHg 84%
05:00 +18°C° 0 mm 2 mps 738 mmHg 79%
06:00 +20°C° 0 mm 2 mps 738 mmHg 74%
07:00 +21°C° 0 mm 2 mps 738 mmHg 68%
08:00 +24°C° 0 mm 2 mps 739 mmHg 61%
09:00 +26°C° 0 mm 2 mps 739 mmHg 54%
10:00 +28°C° 0 mm 2 mps 739 mmHg 47%
11:00 +29°C° 0 mm 2 mps 739 mmHg 44%
12:00 +30°C° 0 mm 3 mps 738 mmHg 40%
13:00 +31°C° 0 mm 3 mps 738 mmHg 37%
14:00 +31°C° 0 mm 3 mps 738 mmHg 39%
15:00 +30°C° 0 mm 3 mps 738 mmHg 41%
16:00 +30°C° 0 mm 3 mps 738 mmHg 44%
17:00 +28°C° 0 mm 4 mps 738 mmHg 48%
18:00 +27°C° 0 mm 4 mps 738 mmHg 52%
19:00 +25°C° 0 mm 4 mps 738 mmHg 57%
20:00 +25°C° 0 mm 5 mps 738 mmHg 58%
21:00 +25°C° 0 mm 5 mps 738 mmHg 59%
22:00 +25°C° 0 mm 5 mps 737 mmHg 60%
23:00 +23°C° 0 mm 5 mps 737 mmHg 61%

26 July, Monday

Time Temperature Precipitation Wind Pressure Humidity
00:00 +22°C° 0 mm 5 mps 737 mmHg 62%
01:00 +22°C° 0 mm 4 mps 737 mmHg 63%
02:00 +21°C° 0.1 mm 4 mps 737 mmHg 67%
03:00 +20°C° 0.1 mm 3 mps 737 mmHg 72%
04:00 +19°C° 0.1 mm 3 mps 737 mmHg 76%
05:00 +20°C° 0.2 mm 3 mps 737 mmHg 75%
06:00 +21°C° 0.2 mm 2 mps 737 mmHg 73%
07:00 +23°C° 0.2 mm 2 mps 737 mmHg 72%
08:00 +25°C° 0 mm 2 mps 737 mmHg 66%
09:00 +26°C° 0 mm 2 mps 737 mmHg 61%
10:00 +28°C° 0 mm 2 mps 738 mmHg 55%
11:00 +29°C° 0 mm 2 mps 738 mmHg 53%
12:00 +30°C° 0 mm 2 mps 738 mmHg 51%
13:00 +30°C° 0 mm 2 mps 738 mmHg 49%
14:00 +31°C° 0 mm 2 mps 737 mmHg 49%
15:00 +31°C° 0 mm 1 mps 737 mmHg 48%
16:00 +31°C° 0 mm 1 mps 737 mmHg 47%
17:00 +28°C° 0.9 mm 1 mps 737 mmHg 61%
18:00 +25°C° 0.9 mm 1 mps 737 mmHg 74%
19:00 +22°C° 0.9 mm 1 mps 737 mmHg 87%
20:00 +21°C° 0.3 mm 1 mps 737 mmHg 88%
21:00 +21°C° 0.3 mm 1 mps 737 mmHg 89%
22:00 +21°C° 0.3 mm 1 mps 737 mmHg 90%
23:00 +20°C° 0.4 mm 1 mps 737 mmHg 90%

27 July, Tuesday

Time Temperature Precipitation Wind Pressure Humidity
00:00 +20°C° 0.4 mm 1 mps 737 mmHg 91%
01:00 +20°C° 0.4 mm 1 mps 737 mmHg 92%
02:00 +20°C° 0.6 mm 1 mps 737 mmHg 92%
03:00 +20°C° 0.6 mm 1 mps 737 mmHg 93%
04:00 +20°C° 0.6 mm 1 mps 737 mmHg 94%
05:00 +20°C° 0.6 mm 2 mps 737 mmHg 92%
06:00 +20°C° 0.6 mm 2 mps 737 mmHg 90%
07:00 +21°C° 0.6 mm 3 mps 738 mmHg 88%
08:00 +21°C° 0.3 mm 3 mps 738 mmHg 88%
09:00 +21°C° 0.3 mm 4 mps 738 mmHg 87%
10:00 +21°C° 0.3 mm 4 mps 738 mmHg 87%
11:00 +23°C° 0.1 mm 4 mps 739 mmHg 78%
12:00 +26°C° 0.1 mm 3 mps 739 mmHg 70%
13:00 +27°C° 0.1 mm 3 mps 739 mmHg 61%
14:00 +28°C° 0 mm 2 mps 739 mmHg 59%
15:00 +28°C° 0 mm 2 mps 739 mmHg 57%
16:00 +28°C° 0 mm 2 mps 739 mmHg 55%
17:00 +27°C° 0 mm 1 mps 739 mmHg 60%
18:00 +26°C° 0 mm 1 mps 739 mmHg 66%
19:00 +25°C° 0 mm 1 mps 739 mmHg 71%
20:00 +24°C° 0 mm 1 mps 739 mmHg 73%
21:00 +23°C° 0 mm 1 mps 739 mmHg 76%
22:00 +22°C° 0 mm 1 mps 739 mmHg 78%
23:00 +21°C° 0 mm 1 mps 739 mmHg 81%

28 July, Wednesday

Time Temperature Precipitation Wind Pressure Humidity
00:00 +20°C° 0 mm 2 mps 739 mmHg 84%
01:00 +19°C° 0 mm 2 mps 739 mmHg 88%
02:00 +19°C° 0 mm 2 mps 739 mmHg 89%
03:00 +19°C° 0 mm 2 mps 738 mmHg 91%
04:00 +19°C° 0 mm 2 mps 738 mmHg 93%
05:00 +20°C° 0.1 mm 2 mps 738 mmHg 87%
06:00 +21°C° 0.1 mm 2 mps 738 mmHg 81%
07:00 +24°C° 0.1 mm 2 mps 738 mmHg 76%
08:00 +25°C° 0.1 mm 2 mps 738 mmHg 72%
09:00 +26°C° 0.1 mm 2 mps 738 mmHg 68%
10:00 +26°C° 0.1 mm 2 mps 738 mmHg 65%
11:00 +25°C° 0.2 mm 3 mps 739 mmHg 72%
12:00 +23°C° 0.2 mm 4 mps 739 mmHg 79%
13:00 +22°C° 0.2 mm 5 mps 739 mmHg 86%
14:00 +21°C° 0.3 mm 5 mps 739 mmHg 86%
15:00 +21°C° 0.3 mm 5 mps 739 mmHg 85%
16:00 +20°C° 0.3 mm 4 mps 740 mmHg 85%
17:00 +20°C° 0 mm 3 mps 740 mmHg 85%
18:00 +20°C° 0 mm 2 mps 740 mmHg 84%
19:00 +20°C° 0 mm 1 mps 740 mmHg 84%
20:00 +20°C° 0 mm 1 mps 740 mmHg 85%
21:00 +19°C° 0 mm 1 mps 740 mmHg 87%
22:00 +18°C° 0 mm 1 mps 741 mmHg 89%
23:00 +18°C° 0 mm 1 mps 740 mmHg 90%
Show more